Weather History for Antigo, WI

Change the Weather History Date:

Wednesday, October 19, 2011

  Actual Average Record
Temperature  
Mean Temperature 38 °F -  
Max Temperature 46 °F 50 °F 78 °F (1950)
Min Temperature 30 °F 32 °F 14 °F (1972)
Degree Days  
Heating Degree Days 27    
Moisture  
Dew Point 33 °F    
Average Humidity 83    
Maximum Humidity 100    
Minimum Humidity 57    
Precipitation  
Precipitation 0.00 in - - ()
Sea Level Pressure  
Sea Level Pressure 29.93 in    
Wind  
Wind Speed 10 mph (NNE)    
Max Wind Speed 18 mph    
Max Gust Speed 29 mph    
Visibility 10 miles    
Events      
Averages and records for this station are not official NWS values.
T = Trace of Precipitation, MM = Missing Value Source: NWS Daily Summary

Daily Weather History Graph

Daily Weather History Graph

Search for Another Location

Airport:

Trip Planner

Search our weather history database for the weather conditions in past years. The results will help you decide how hot, cold, wet, or windy it might be!

Date:

Astronomy

Oct. 19, 2011 Rise Set
Actual Time 7:17 AM CDT 6:04 PM CDT
Civil Twilight 6:47 AM CDT 6:34 PM CDT
Nautical Twilight 6:13 AM CDT 7:08 PM CDT
Astronomical Twilight 5:39 AM CDT 7:42 PM CDT
Moon 11:43 PM CDT (10/19) 1:55 PM CDT (10/19)
Length of Visible Light 11h 47m
Length of Day
10h 47m
Waning Gibbous, 54% of the Moon is Illuminated
Oct 19
Waning Gibbous
Oct 19
Last Quarter
Oct 26
New
Nov 2
First Quarter
Nov 10
Full

Hourly Weather History & Observations

Time (CDT) Temp. Windchill Dew Point Humidity Pressure Visibility Wind Dir Wind Speed Gust Speed Precip Events Conditions
12:15 AM 30.2 °F 25.4 °F 30.2 °F 100% 29.94 in 10.0 mi North 4.6 mph - N/A   Clear
12:35 AM 30.2 °F 25.4 °F 30.2 °F 100% 29.94 in 10.0 mi North 4.6 mph - N/A   Clear
12:55 AM 30.2 °F 25.4 °F 30.2 °F 100% 29.94 in 10.0 mi North 4.6 mph - N/A   Clear
1:15 AM 30.2 °F 25.4 °F 30.2 °F 100% 29.94 in 10.0 mi North 4.6 mph - N/A   Clear
2:15 AM 30.2 °F 25.4 °F 30.2 °F 100% 29.94 in 10.0 mi North 4.6 mph - N/A   Mostly Cloudy
2:35 AM 30.2 °F 24.3 °F 30.2 °F 100% 29.94 in 10.0 mi North 5.8 mph - N/A   Scattered Clouds
2:55 AM 32.0 °F 26.4 °F 32.0 °F 100% 29.94 in 10.0 mi North 5.8 mph - N/A   Mostly Cloudy
3:15 AM 33.8 °F 28.6 °F 33.8 °F 100% 29.94 in 10.0 mi North 5.8 mph - N/A   Overcast
3:35 AM 33.8 °F 27.7 °F 33.8 °F 100% 29.94 in 10.0 mi North 6.9 mph - N/A   Overcast
3:55 AM 33.8 °F 27.7 °F 32.0 °F 93% 29.94 in 10.0 mi North 6.9 mph - N/A   Mostly Cloudy
4:15 AM 33.8 °F 27.7 °F 33.8 °F 100% 29.94 in 10.0 mi North 6.9 mph - N/A   Mostly Cloudy
4:35 AM 33.8 °F 25.8 °F 33.8 °F 100% 29.94 in 10.0 mi North 10.4 mph - N/A   Overcast
4:55 AM 35.6 °F 28.0 °F 33.8 °F 93% 29.93 in 10.0 mi North 10.4 mph - N/A   Overcast
5:15 AM 33.8 °F 25.8 °F 33.8 °F 100% 29.94 in 10.0 mi North 10.4 mph - N/A   Mostly Cloudy
5:35 AM 33.8 °F 25.8 °F 32.0 °F 93% 29.94 in 10.0 mi North 10.4 mph - N/A   Scattered Clouds
5:55 AM 33.8 °F 26.4 °F 32.0 °F 93% 29.94 in 10.0 mi North 9.2 mph - N/A   Scattered Clouds
6:15 AM 33.8 °F 26.4 °F 32.0 °F 93% 29.95 in 10.0 mi North 9.2 mph - N/A   Mostly Cloudy
6:35 AM 33.8 °F 25.8 °F 32.0 °F 93% 29.95 in 10.0 mi North 10.4 mph - N/A   Overcast
6:55 AM 33.8 °F 23.9 °F 32.0 °F 93% 29.94 in 10.0 mi North 15.0 mph - N/A   Overcast
7:15 AM 33.8 °F 24.8 °F 32.0 °F 93% 29.94 in 10.0 mi North 12.7 mph - N/A   Mostly Cloudy
7:35 AM 33.8 °F 25.8 °F 33.8 °F 100% 29.95 in 10.0 mi North 10.4 mph - N/A   Mostly Cloudy
7:55 AM 35.6 °F 27.1 °F 33.8 °F 93% 29.95 in 10.0 mi NNE 12.7 mph - N/A   Overcast
8:15 AM 35.6 °F 28.0 °F 33.8 °F 93% 29.96 in 10.0 mi North 10.4 mph 16.1 mph N/A   Overcast
8:35 AM 35.6 °F 27.5 °F 33.8 °F 93% 29.96 in 10.0 mi NNE 11.5 mph - N/A   Overcast
9:15 AM 37.4 °F 29.8 °F 33.8 °F 87% 29.96 in 10.0 mi North 11.5 mph - N/A   Overcast
9:35 AM 37.4 °F 30.3 °F 33.8 °F 87% 29.96 in 10.0 mi NNE 10.4 mph 18.4 mph N/A   Overcast
9:55 AM 39.2 °F 31.6 °F 33.8 °F 81% 29.97 in 10.0 mi NNE 12.7 mph - N/A   Overcast
10:15 AM 39.2 °F 32.0 °F 33.8 °F 81% 29.97 in 10.0 mi NNE 11.5 mph - N/A   Overcast
10:35 AM 39.2 °F 31.2 °F 33.8 °F 81% 29.97 in 10.0 mi NNE 13.8 mph 17.3 mph N/A   Overcast
11:15 AM 41.0 °F 33.5 °F 33.8 °F 76% 29.97 in 10.0 mi NNE 13.8 mph 24.2 mph N/A   Overcast
11:35 AM 42.8 °F 35.8 °F 33.8 °F 70% 29.97 in 10.0 mi NNE 13.8 mph 19.6 mph N/A   Overcast
11:55 AM 42.8 °F 35.1 °F 33.8 °F 70% 29.97 in 10.0 mi NNE 16.1 mph 21.9 mph N/A   Overcast
12:15 PM 44.6 °F 37.8 °F 33.8 °F 66% 29.96 in 10.0 mi NE 15.0 mph 19.6 mph N/A   Scattered Clouds
12:35 PM 44.6 °F 37.8 °F 32.0 °F 61% 29.95 in 10.0 mi NNE 15.0 mph - N/A   Mostly Cloudy
12:55 PM 44.6 °F 36.9 °F 33.8 °F 66% 29.94 in 10.0 mi North 18.4 mph - N/A   Overcast
1:15 PM 44.6 °F 36.9 °F 32.0 °F 61% 29.92 in 10.0 mi North 18.4 mph 23.0 mph N/A   Mostly Cloudy
1:35 PM 46.4 °F 39.5 °F 32.0 °F 57% 29.92 in 10.0 mi NNE 17.3 mph 21.9 mph N/A   Overcast
1:55 PM 44.6 °F 37.8 °F 32.0 °F 61% 29.91 in 10.0 mi NNE 15.0 mph 25.3 mph N/A   Mostly Cloudy
2:15 PM 44.6 °F 37.4 °F 33.8 °F 66% 29.91 in 10.0 mi NNE 16.1 mph 21.9 mph N/A   Mostly Cloudy
2:35 PM 44.6 °F 37.8 °F 33.8 °F 66% 29.90 in 10.0 mi NNE 15.0 mph 20.7 mph N/A   Overcast
2:55 PM 44.6 °F 36.9 °F 33.8 °F 66% 29.90 in 10.0 mi NE 18.4 mph - N/A   Overcast
3:15 PM 44.6 °F 37.2 °F 33.8 °F 66% 29.90 in 10.0 mi NNE 17.3 mph 20.7 mph N/A   Overcast
3:35 PM 44.6 °F 37.4 °F 35.6 °F 71% 29.90 in 10.0 mi NNE 16.1 mph 21.9 mph N/A   Mostly Cloudy
3:55 PM 44.6 °F 37.4 °F 35.6 °F 71% 29.90 in 10.0 mi North 16.1 mph 20.7 mph N/A   Scattered Clouds
4:15 PM 44.6 °F 38.8 °F 35.6 °F 71% 29.90 in 10.0 mi North 11.5 mph - N/A   Mostly Cloudy
4:35 PM 46.4 °F 39.5 °F 35.6 °F 66% 29.90 in 10.0 mi NNE 17.3 mph 21.9 mph N/A   Mostly Cloudy
4:55 PM 42.8 °F 35.8 °F 35.6 °F 76% 29.89 in 10.0 mi North 13.8 mph 23.0 mph N/A   Mostly Cloudy
5:15 PM 44.6 °F 37.2 °F 35.6 °F 71% 29.89 in 10.0 mi NNE 17.3 mph - N/A   Scattered Clouds
5:35 PM 42.8 °F 36.6 °F 35.6 °F 76% 29.89 in 10.0 mi NNE 11.5 mph - N/A   Mostly Cloudy
5:55 PM 42.8 °F 36.2 °F 35.6 °F 76% 29.90 in 10.0 mi NNE 12.7 mph - N/A   Overcast
6:15 PM 41.0 °F 32.5 °F 33.8 °F 76% 29.90 in 10.0 mi NNE 17.3 mph 28.8 mph N/A   Mostly Cloudy
6:35 PM 41.0 °F 33.1 °F 33.8 °F 76% 29.91 in 10.0 mi NNE 15.0 mph 24.2 mph N/A   Scattered Clouds
6:55 PM 41.0 °F 32.2 °F 33.8 °F 76% 29.91 in 10.0 mi NNE 18.4 mph 24.2 mph N/A   Scattered Clouds
7:15 PM 39.2 °F 31.2 °F 33.8 °F 81% 29.92 in 10.0 mi NNE 13.8 mph 23.0 mph N/A   Scattered Clouds
7:35 PM 39.2 °F 32.0 °F 32.0 °F 75% 29.92 in 10.0 mi NNE 11.5 mph 24.2 mph N/A   Clear
7:55 PM 37.4 °F 28.5 °F 33.8 °F 87% 29.90 in 10.0 mi NNE 15.0 mph - N/A   Clear
8:15 PM 37.4 °F 27.8 °F 33.8 °F 87% 29.90 in 10.0 mi North 17.3 mph 23.0 mph N/A   Scattered Clouds
8:35 PM 37.4 °F 28.2 °F 33.8 °F 87% 29.90 in 10.0 mi North 16.1 mph 21.9 mph N/A   Mostly Cloudy
9:15 PM 37.4 °F 27.5 °F 32.0 °F 81% 29.88 in 10.0 mi NNE 18.4 mph 25.3 mph N/A   Overcast
9:35 PM 37.4 °F 28.2 °F 32.0 °F 81% 29.88 in 10.0 mi North 16.1 mph 27.6 mph N/A   Overcast
9:55 PM 37.4 °F 27.5 °F 32.0 °F 81% 29.87 in 10.0 mi North 18.4 mph 24.2 mph N/A   Overcast
10:15 PM 35.6 °F 25.9 °F 30.2 °F 81% 29.86 in 10.0 mi North 16.1 mph 24.2 mph N/A   Scattered Clouds
11:15 PM 37.4 °F 28.5 °F 32.0 °F 81% 29.83 in 10.0 mi North 15.0 mph 24.2 mph N/A   Overcast
11:35 PM 35.6 °F 25.9 °F 32.0 °F 87% 29.82 in 10.0 mi North 16.1 mph 21.9 mph N/A   Scattered Clouds
11:55 PM 37.4 °F 28.2 °F 33.8 °F 87% 29.81 in 10.0 mi North 16.1 mph 24.2 mph N/A   Mostly Cloudy